Location: Little Italy
(37.8008°N, 122.4108°W)
Time: 07:13:49
(UTC+00:00)

ERS-2 - Pass Details

Date: 29 October 2020
Orbit: 493 x 497 km, 98.6° (Epoch: 02 December)

Event Time Altitude Azimuth Distance (km) Brightness Sun altitude
Rises 12:03:47 0° 138° (SE) 2,566 6.2 -29.9°
Reaches altitude 10° 12:06:07 10° 124° (SE) 1,688 5.4 -29.4°
Maximum altitude 12:09:03 24° 69° (ENE) 1,072 4.4 -28.9°
Enters shadow 12:10:14 20° 41° (NE) 1,195 4.4 -28.6°
